OPS 4682 DEB, 26733

Orbit data source: Space-Track

OPS 4682 DEB, 26733 is space debris in LEO originally from a launch on Sat, 03 Apr 1965 UTC launched from the Air Force Western Test Range (AFWTR). Debris objects in space refer to the collection of defunct objects orbiting the Earth. Examples of debris include non-operational satellites, rocket bodies, and fragments generated from explosions, collisions, or faulty payload assembly.

Loading next visibility...
Identifier
26733, 1965-027BG
Orbit
LEO
Country
Flag of USUS
Related business
Manufacturer
Unknown
Mission
Spacecraft
Bus & Motor
Unknown
Mass
Unknown
Launch date (UTC)
1965-04-03 (61 years ago)
Launch vehicle
Unknown
Launch site
Air Force Western Test Range (AFWTR)
Object type
Payload
Rocket body
Debris
Shape & HBR
Unknown shape, 0.1 m
Radar Cross Section
Small (<0.1 m²)

Expand to show TLE details & history
Last TLE update: 23 hours ago

TLE from 23 hours ago
0 OPS 4682 DEB
1 26733U 65027BG  26035.38325606  .00000314  00000-0  11024-2 0  9998
2 26733  90.2405   3.2478 0032161 210.7797 302.7914 12.94384697179829
Epoch: 2026-02-04T09:11Z
TLE epoch observation values (Epoch: 2026-02-04T09:11:53.323Z)
Latitude
26.77214°
Longitude
-89.15427°
Altitude
1,274.132 km
Speed
7.227 km/s
True Right ascension
12h 13m 28s
True Declination
26° 38' 36"
Sunlit
Object was in full shadow at epoch
Visualization orbit readout
Latitude
Unknown
Longitude
Unknown
Altitude
Unknown
Speed
Unknown
Apparent Right ascension
Unknown
Apparent Declination
Unknown
Sunlit
N/A
Visualization observer readout
Local Sidereal Time
10:09:35
Azimuth
Unknown
Elevation
Unknown
Doppler factor
Unknown
Orbital elements
Apogee altitude
1,305.936 km
Perigee altitude
1,256.669 km
Semi-major axis
7,659.44 km
Eccentricity
0.00322
Inclination
90.2405°
RAAN
3.2478°
Arg. of periapsis
210.7797°
True anomaly
302.48091°
Mean anomaly
302.7914°
Eccentric anomaly
302.63622°
Mean motion
3.23778 °/min
Orbital period
111.19 mins
BSTAR
0.0011024
Loading maneuver chart data...
Computing Atmospheric mass density...
Loading historical data...
Loading historical data...
Loading historical data...
Loading historical data...
Loading historical data...
Loading historical data...
Loading historical data...

Documentation

Showing up to 5 results
|